Location: Fauquembergues
(50.6005°N, 2.0987°E)
Time: 08:41:56
(UTC+00:00)

Tsikada Rocket - Pass Details

Date: 14 July 2020
Orbit: 959 x 1008 km, 82.9° (Epoch: 14 August)

Event Time Altitude Azimuth Distance (km) Brightness Sun altitude
Rises 01:29:11 0° 351° (N) 3,746 8.1 -15.0°
Reaches altitude 10° 01:31:45 10° 354° (N) 2,795 7.4 -14.8°
Maximum altitude 01:38:10 69° 78° (ENE) 1,081 4.4 -14.4°
Drops below altitude 10° 01:44:33 10° 161° (SSE) 2,778 6.0 -14.0°
Enters shadow 01:45:07 - 162° (SSE) 2,986 6.1 -14.0°
